DELTA 1 DEB, 27578

Orbit data source: Space-Track

DELTA 1 DEB, 27578 is space debris in SSO originally from a launch on Thu, 12 Jun 1975 UTC launched from the Air Force Western Test Range (AFWTR). Debris objects in space refer to the collection of defunct objects orbiting the Earth. Examples of debris include non-operational satellites, rocket bodies, and fragments generated from explosions, collisions, or faulty payload assembly.

Loading next visibility...
Identifier
27578, 1975-052LF
Orbit
SSO
Country
Flag of USUS
Related business
Manufacturer
Unknown
Mission
Spacecraft
Bus & Motor
Unknown
Mass
Unknown
Launch date (UTC)
1975-06-12 (51 years ago)
Launch vehicle
Unknown
Launch site
Air Force Western Test Range (AFWTR)
Object type
Payload
Rocket body
Debris
Shape & HBR
Unknown shape, 0.1 m
Radar Cross Section
Medium (>0.1 m² and <1 m²)

Expand to show TLE details & history
Last TLE update: 3 days ago

TLE from 3 days ago
0 DELTA 1 DEB
1 27578U 75052LF  26170.73107468  .00000346  00000-0  39437-3 0  9992
2 27578  99.6028  81.9850 0041791 167.7544 219.1748 13.76949783259298
Epoch: 2026-06-19T17:32Z
TLE epoch observation values (Epoch: 2026-06-19T17:32:44.852Z)
Latitude
26.26093°
Longitude
-93.92117°
Altitude
1,001.715 km
Speed
7.341 km/s
True Right ascension
05h 08m 53s
True Declination
26° 07' 45"
Sunlit
Object was in daylight at epoch
Visualization orbit readout
Latitude
Unknown
Longitude
Unknown
Altitude
Unknown
Speed
Unknown
Apparent Right ascension
Unknown
Apparent Declination
Unknown
Sunlit
N/A
Visualization observer readout
Local Sidereal Time
00:56:44
Azimuth
Unknown
Elevation
Unknown
Doppler factor
Unknown
Orbital elements
Apogee altitude
1,002.703 km
Perigee altitude
941.269 km
Semi-major axis
7,350.123 km
Eccentricity
0.00418
Inclination
99.6028°
RAAN
81.985°
Arg. of periapsis
167.7544°
True anomaly
218.87351°
Mean anomaly
219.1748°
Eccentric anomaly
219.02403°
Mean motion
3.4443 °/min
Orbital period
104.52 mins
BSTAR
0.00039437
Loading maneuver chart data...
Computing Atmospheric mass density...

Documentation

Showing up to 5 results
|